Showing default

KINEIS-4C, 63301

Orbit data source: Space-Track

KINEIS-4C, 63301 is a French payload satellite in SSO that was launched on Tue, 18 Mar 2025 UTC via an ELECTRON launch vehicle from the Rocket Lab Launch Complex (RLLC). Payload-class satellites include a variety of spacecraft equipped with specific instruments for various scientific and technological missions. These include communications satellites like Starlink; space stations such as the ISS; scientific satellites like the Hubble; Earth observation satellites from companies like Planet Labs, Umbra, and HawkEye 360; GPS; miniature CubeSats for education and research; and military/defense satellites.

Loading next visibility...
Identifier
63301, 2025-056B
Orbit
SSO
Last TLE update
8 hours ago
Origin
Manufacturer
KINEIS
Mission
Operational Commercial Communications
Bus & Motor
CUBESAT 16U, Unknown motor
Mass
28 kg wet, 28 kg dry
Launch date (UTC)
2025-03-18 (2 months ago)
Launch vehicle
ELECTRON
Launch site
Rocket Lab Launch Complex (RLLC)
Object type
Payload
Rocket body
Debris
Shape & HBR
Box + 2 Pan + 1 Ant, 1.6 m
Radar Cross Section
0.229 m², Medium (>0.1 m² and < 1m²)

Expand to show TLE details & history

TLE from 8 hours ago
0 KINEIS-4C
1 63301U 25056B   25128.91664849  .00003128  00000-0  47405-3 0  9993
2 63301  97.9759 255.4335 0001861 146.5526 213.5800 14.74849726  7641
Epoch: 2025-05-08T21:59Z
Definitive object data (Epoch: 2025-05-08T21:59:58.429Z)
Latitude
-0.0001°
Longitude
58.45978°
Altitude
649.73 km
Speed
7.532 km/s
True Right ascension
17h 01m 44s
True Declination
0° 00' 00"
Sunlit
Object was in full shadow at TLE epoch
Visualization TLE readout
Latitude
-43.50176°
Longitude
-128.83114°
Altitude
662.12 km
Speed
7.525 km/s
Apparent Right ascension
03h 08m 17s
Apparent Declination
-43° 41' 05"
Sunlit
Object is in daylight
Visualization observer readout
Local Sidereal Time
13:40:07
Azimuth
249.839° W
Elevation
-73.196°
Doppler factor
1
Orbital elements
Apogee altitude
643.986 km
Perigee altitude
641.373 km
Semi-major axis
7,020.816 km
Eccentricity
0.0001861
Inclination
97.9759°
RAAN
255.4335°
Arg. of periapsis
146.5526°
True anomaly
213.56821°
Mean anomaly
213.58°
Eccentric anomaly
213.5741°
Mean motion
3.68945 °/min
BSTAR
0.00047405
Orbital period
97.58 mins
Loading maneuver chart data...
Loading SW <> Apogee altitude chart data...
Loading historical data...
Loading historical data...
Loading historical data...
Loading historical data...
Loading historical data...
Loading historical data...
Loading historical data...

KINEIS-4C Visibility forecast

Observer location: undefined°, undefined°

Span
Click to sort rows by Start time (UTC) header in descending order
Start Az.
Max El. time (UTC)
Max El. Az.
Max El.
End time (UTC)
End Az.
8 mins2025-05-09 07:53:26.492Z141.488° SSE2025-05-09 07:57:26.492Z74.151° E33.684°2025-05-09 08:01:26.492Z2.93° NNE
4 mins2025-05-09 09:32:26.492Z238.557° WSW2025-05-09 09:34:26.492Z269.848° W16.225°2025-05-09 09:36:26.492Z299.854° NW
7 mins2025-05-09 21:22:26.492Z9.421° NNE2025-05-09 21:25:26.492Z302.675° NW44.613°2025-05-09 21:29:26.492Z197.733° SSW
|